This demonstration page uses our WeatherBlox Daily Observations layout. Learn more.

Left ArrowRight Arrow

Hourly Observations for May 7, 2015

Temp ( °F °C ) Dew Point ( °F °C ) Humidity (%) Winds ( mph kmh ) Pressure ( in mb ) Visibility ( mi km ) Precip ( " mm )
12:01 am 00:01 Mostly Cloudy with Thunderstorms 61 16.1 58 14.4 90 90 S 9 15 29.59 1002 9 14 0.01 0.25
12:39 am 00:39 Mostly Cloudy with Nearby Thunderstorms 61 16.1 58 14.4 90 90 SSW 8 13 29.62 1003 10 16 0.01 0.25
12:49 am 00:49 Partly Cloudy 64 18 61 16 88 88 S 12 19 29.62 1003 10 16 0.01 0.25
12:53 am 00:53 Partly Cloudy 64 17.8 61 16.1 90 90 S 13 20 29.62 1003 10 16 0.01 0.25
1:31 am 01:31 Mostly Cloudy 64 17.8 61 16.1 90 90 S 13 20 29.62 1003 10 16 0.00 0.00
1:53 am 01:53 Mostly Cloudy 64 17.8 60 15.6 87 87 S 15 24 29.63 1003 10 16 0.00 0.00
2:04 am 02:04 Partly Cloudy 64 18 61 16 88 88 S 15 24 29.62 1003 10 16 0.00 0.00
2:53 am 02:53 Partly Cloudy with Light Rain 63 17.2 60 15.6 90 90 SSW 14 22 29.62 1003 10 16 0.00 0.03
3:48 am 03:48 Mostly Cloudy 63 17 61 16 94 94 S 13 20 29.62 1003 10 16 0.00 0.00
3:49 am 03:49 Mostly Cloudy 63 17 61 16 94 94 S 14 22 29.62 1003 10 16 0.00 0.00
4:53 am 04:53 Cloudy 62 16.7 60 15.6 93 93 SSW 12 19 29.64 1004 10 16 0.00 0.00
5:20 am 05:20 Cloudy 63 17 61 16 94 94 SSW 12 19 29.65 1004 10 16 0.00 0.00
5:53 am 05:53 Mostly Cloudy 62 16.7 60 15.6 93 93 SW 12 19 29.65 1004 10 16 0.00 0.00
6:53 am 06:53 Cloudy with Light Rain 61 16.1 57 13.9 87 87 W 22 35 29.68 1005 10 16 0.01 0.25
7:53 am 07:53 Cloudy with Light Rain 60 15.6 57 13.9 90 90 W 15 24 29.70 1006 10 16 0.00 0.03
8:53 am 08:53 Mostly Cloudy with Light Rain 61 16.1 56 13.3 84 84 WSW 12 19 29.74 1007 10 16 0.00 0.03
9:06 am 09:06 Cloudy with Light Rain 62 16.7 57 13.9 84 84 W 16 26 29.71 1006 10 16 0.00 0.03
9:51 am 09:51 Partly Cloudy 63 17 57 14 83 83 W 15 24 29.74 1007 10 16 0.00 0.03
9:53 am 09:53 Partly Cloudy 63 17.2 57 13.9 81 81 W 14 22 29.76 1008 10 16 0.00 0.03
10:53 am 10:53 Cloudy 63 17.2 56 13.3 78 78 WNW 17 28 29.80 1009 10 16 0.00 0.00
11:32 am 11:32 Cloudy 63 17 55 13 77 77 NW 15 24 29.77 1008 10 16 0.00 0.00
11:50 am 11:50 Cloudy 63 17 55 13 77 77 NW 16 26 29.80 1009 10 16 0.00 0.00
11:53 am 11:53 Cloudy 64 17.8 56 13.3 75 75 WNW 16 26 29.82 1010 10 16 0.00 0.00
12:03 pm 12:03 Cloudy 63 17 55 13 77 77 NW 16 26 29.77 1008 10 16 0.00 0.00
12:53 pm 12:53 Cloudy 64 17.8 55 12.8 73 73 WNW 15 24 29.83 1010 10 16 0.00 0.00
1:53 pm 13:53 Mostly Cloudy 66 18.9 55 12.8 68 68 WNW 12 19 29.83 1010 10 16 0.00 0.00
2:48 pm 14:48 Partly Cloudy 68 20 55 13 64 64 NW 13 20 29.80 1009 10 16 0.00 0.00
2:53 pm 14:53 Partly Cloudy 68 20 55 12.8 63 63 NW 17 28 29.83 1010 10 16 0.00 0.00
3:53 pm 15:53 Partly Cloudy 68 20 54 12.2 61 61 NW 13 20 29.83 1010 10 16 0.00 0.00
4:53 pm 16:53 Partly Cloudy 68 20 54 12.2 61 61 NNW 14 22 29.83 1010 10 16 0.00 0.00
5:53 pm 17:53 Partly Cloudy 67 19.4 53 11.7 61 61 NNW 15 24 29.84 1011 10 16 0.00 0.00
6:53 pm 18:53 Mostly Cloudy 64 17.8 53 11.7 68 68 N 12 19 29.88 1012 10 16 0.00 0.00
7:53 pm 19:53 Mostly Cloudy 62 16.7 52 11.1 70 70 N 12 19 29.91 1013 10 16 0.00 0.00
8:53 pm 20:53 Cloudy 60 15.6 51 10.6 72 72 N 12 19 29.92 1013 10 16 0.00 0.00
9:11 pm 21:11 Cloudy 61 16 52 11 72 72 NNW 15 24 29.91 1013 10 16 0.00 0.00
9:53 pm 21:53 Cloudy 58 14.4 50 10 75 75 N 13 20 29.94 1014 10 16 0.00 0.00
10:53 pm 22:53 Mostly Cloudy 56 13.3 48 8.9 75 75 N 17 28 29.96 1014 10 16 0.00 0.00
11:12 pm 23:12 Mostly Clear 55 13 48 9 77 77 N 16 26 30.00 1016 10 16 0.00 0.00
11:53 pm 23:53 Mostly Clear 53 11.7 47 8.3 80 80 N 14 22 29.98 1015 10 16 0.00 0.00

Powered by AerisWeather